Regional Weather Roundup
Issued by NWS

Home | Current Version | Previous Version | Text Only | Print | Product List | Glossary Off
Versions: 1 2 3 4 5 6 7 8 9 10 11 12 13 14 15 16 17 18 19 20 21 22 23 24 25 26 27 28 29 30 31 32 33 34 35 36 37 38 39 40 41 42 43 44 45 46 47 48 49 50

000
ASUS43 KDTX 182001
RWRMI
MICHIGAN HOURLY REGIONAL WEATHER ROUNDUP
NATIONAL WEATHER SERVICE DETROIT/PONTIAC MI
300 PM EST THU JAN 18 2018

NOTE: "FAIR" INDICATES FEW OR NO CLOUDS BELOW 12,000 FEET WITH NO
SIGNIFICANT WEATHER AND/OR OBSTRUCTION TO VISIBILITY.

MIZ047>049-052>055-059>063-066>070-074>076-081>083-182100-
SOUTHEAST LOWER MICHIGAN

CITY           SKY/WX    TMP DP  RH WIND       PRES   REMARKS
ADRIAN         FAIR      26  16  65 SW15G22   30.05F WCI  14
ALMA           FAIR      29  23  77 SW15      29.93F WCI  18
ANN ARBOR      FAIR      27  16  63 S15       30.01F WCI  15
BAD AXE        FAIR      27  20  77 SW13G18   29.91F WCI  16
CARO           FAIR      27  20  76 SW14      29.92F WCI  16
DETROIT CITY   FAIR      28  16  60 SW16      30.01F WCI  16
DETROIT        PTSUNNY   27  16  63 SW15      30.03F WCI  15
FLINT          FAIR      26  15  63 SW10      29.97F WCI  16
GROSSE ILE     FAIR      26  16  64 SW16G22   30.03F WCI  14
HILLSDALE      FAIR      30  14  51 SW10G20   30.01S WCI  21
HOWELL         FAIR      28  17  62 SW10      29.98S WCI  19

CITY           SKY/WX    TMP DP  RH WIND       PRES   REMARKS
JACKSON        FAIR      28  16  60 SW14      29.98F WCI  17
LAMBERTVILLE   FAIR      27  14  59 SW12G17   30.05F WCI  16
LANSING        FAIR      28  16  60 SW15      29.97F WCI  16
LAPEER         FAIR      29  18  64 SW10G16   29.95F WCI  20
MASON          FAIR      29  14  53 SW7       29.97F WCI  22
MONROE         FAIR      26  14  60 SW9       30.04F WCI  16
MT. CLEMENS    PTSUNNY   30  13  49 SW10      29.98F WCI  21
PONTIAC        PTSUNNY   28  16  60 SW13      29.96F WCI  17
PORT HOPE        N/A     27  20  75 SW10G22   29.90S WCI  17
PORT HURON     FAIR      27  16  63 S12       29.98F WCI  16
TRI CITIES     FAIR      29  23  78 SW17      29.92F WCI  17
MIDLAND        PTSUNNY   30  23  75 SW14G21   29.90F WCI  20
TROY           FAIR      30  16  56 S9G17     30.01S WCI  21
SAGINAW HB     FAIR      28  21  74 SW16      29.92F WCI  17
$$
MIZ043>046-050>051-056>058-064>065-071>073-077>080-182100-
SOUTHWEST LOWER MICHIGAN

CITY           SKY/WX    TMP DP  RH WIND       PRES   REMARKS
BATTLE CREEK   FAIR      29  16  58 SW18      29.99F WCI  16
BENTON HARBOR  FAIR      29  14  53 S12       30.02F WCI  19
BIG RAPIDS     PTSUNNY   30  23  73 SW10G24   29.88F WCI  21
COLDWATER      FAIR      26  15  63 SW14G21   30.02F WCI  14
FREMONT        CLOUDY    30  21  69 SW18G25   29.91F WCI  18
HOLLAND        FAIR      29  22  75 SW22G28   29.98F WCI  15
GRAND RAPIDS   PTSUNNY   30  20  66 SW15      29.96F WCI  19
IONIA          FAIR      31  20  66 SW15      29.94F WCI  20
KALAMAZOO      FAIR      28  15  58 SW17      30.01F WCI  16
LUDINGTON      CLOUDY    30  26  85 S20G26    29.88F WCI  17
MARSHALL       FAIR      28  15  56 SW13G21   29.99F WCI  18
MOUNT PLEASANT FAIR      31  23  72 SW13      29.89F WCI  21
MUSKEGON       FAIR      31  23  72 SW18G29   29.95F WCI  19
SOUTH HAVEN    FAIR      32  16  52 SW13G20   30.00F WCI  22
$$
MIZ016>042-182100-
NORTHERN LOWER MICHIGAN

CITY           SKY/WX    TMP DP  RH WIND       PRES   REMARKS
ALPENA         FAIR      31  23  72 S8        29.81F WCI  23
BEAVER ISLAND  PTSUNNY   33  28  83 SW20G31   29.75F WCI  21
BELLAIRE       FAIR      33  27  79 S10G16    29.80F WCI  25
CADILLAC       FAIR      32  25  75 SW12      29.80F WCI  23
CHARLEVOIX     FAIR      33  26  77 S13G20    29.79F WCI  23
FRANKFORT      CLOUDY    32  28  85 S12G25    29.83F WCI  23
GAYLORD        FAIR      30  24  78 SW10      29.76F WCI  21
GRAYLING       FAIR      31  22  69 SW8       29.81F WCI  24
HARBOR SPRINGS FAIR      32  25  76 SW10      29.79S WCI  24
HOUGHTON LAKE  FAIR      31  23  72 S8        29.83F WCI  23
MANISTEE       FAIR      32  25  75 S10G21    29.86F WCI  24
OSCODA         FAIR      30  20  67 SW10G18   29.85F WCI  21
PELLSTON       CLOUDY    32  25  75 SW8       29.78F WCI  25
ROGERS CITY    FAIR      31  23  72 S5        29.80F WCI  26
TRAVERSE CITY  CLOUDY    35  25  66 SW8       29.79F WCI  29
$$
MIZ007>008-015-182100-
EASTERN UPPER MICHIGAN

CITY           SKY/WX    TMP DP  RH WIND       PRES   REMARKS
KINROSS        CLOUDY    30  27  88 S9G17     29.71F WCI  22
MACKINAC ISLAN CLOUDY    31  27  84 SW9G17    29.76F WCI  23
NEWBERRY       CLOUDY    28  28  96 SW18G24   29.70R WCI  16
S. S. MARIE    CLOUDY    33  24  69 SE10      29.72F WCI  25
MUNISING         N/A     27  21  78 SW12      29.69F WCI  17
$$
MIZ004>006-011>014-085-182100-
CENTRAL UPPER MICHIGAN

CITY           SKY/WX    TMP DP  RH WIND       PRES   REMARKS
MANISTIQUE     PTSUNNY   27  21  80 SW8       29.73F WCI  18
ESCANABA       CLOUDY    30  20  66 SW8       29.73F WCI  22
MENOMINEE      PTSUNNY   32  21  64 SW8       29.76F WCI  25
SAWYER-GWINN   CLOUDY    27  19  74 SW9       29.66F WCI  17
$$
MIZ001>003-009>011-084-182100-
WESTERN UPPER MICHIGAN

CITY           SKY/WX    TMP DP  RH WIND       PRES   REMARKS
IRON MOUNTAIN  CLOUDY    35  23  61 W10       29.67F WCI  27
HOUGHTON       CLOUDY    33  26  75 W20G25    29.63F WCI  21
COPPER HARBOR    N/A     33  29  85 VRB5      29.64F WCI  29
IRONWOOD       CLOUDY    32  23  69 W12       29.70F WCI  23
$$

ABBREVIATIONS USED IN REMARKS
   TC - TEMPERATURE IN CELSIUS
  WCI - WIND CHILL INDEX
   HX - HEAT INDEX
  VSB - VISIBILITY




USA.gov is the U.S. government's official web portal to all federal, state and local government web resources and services.